When you browse on this site, cookies collect data to enhance your experience and personalize the content and advertising you see.
Visit our Privacy Policy to learn more. By continuing to use the site, you agree to this use of cookies and data.
  • In Austria
  • List of Countries
  • For 7 days
  • Water Temperature
  • Satellite Maps
  • Weather Map
  • News
  • Weather Widgets
  • user-avatar
    Login

    Hourly Weather Wiktoria

    Today, 19 March, Tuesday

    Time Temperature Precipitation Wind Pressure Humidity
    00:00 +20°C° 0 mm 2 mps 749 mmHg 73%
    01:00 +20°C° 0 mm 3 mps 749 mmHg 77%
    02:00 +19°C° 0 mm 2 mps 749 mmHg 78%
    03:00 +19°C° 0 mm 2 mps 749 mmHg 80%
    04:00 +18°C° 0 mm 2 mps 748 mmHg 82%
    05:00 +18°C° 0 mm 2 mps 749 mmHg 82%
    06:00 +18°C° 0 mm 2 mps 749 mmHg 82%
    07:00 +18°C° 0 mm 2 mps 749 mmHg 82%
    08:00 +22°C° 0 mm 1 mps 749 mmHg 71%
    09:00 +25°C° 0 mm 1 mps 749 mmHg 61%
    10:00 +26°C° 0 mm 0 mps 749 mmHg 51%
    11:00 +29°C° 0 mm 1 mps 749 mmHg 45%
    12:00 +30°C° 0 mm 2 mps 748 mmHg 39%
    13:00 +31°C° 0 mm 2 mps 748 mmHg 34%
    14:00 +32°C° 0 mm 2 mps 747 mmHg 32%
    15:00 +33°C° 0 mm 3 mps 747 mmHg 30%
    16:00 +34°C° 0 mm 3 mps 747 mmHg 27%
    17:00 +31°C° 0 mm 3 mps 747 mmHg 35%
    18:00 +29°C° 0 mm 3 mps 747 mmHg 42%
    19:00 +27°C° 0 mm 4 mps 747 mmHg 49%
    20:00 +26°C° 0 mm 4 mps 748 mmHg 58%
    21:00 +25°C° 0 mm 4 mps 748 mmHg 66%
    22:00 +22°C° 0 mm 4 mps 748 mmHg 74%
    23:00 +22°C° 0 mm 4 mps 748 mmHg 78%

    Tomorrow, 20 March, Wednesday

    Time Temperature Precipitation Wind Pressure Humidity
    00:00 +21°C° 0 mm 3 mps 748 mmHg 81%
    01:00 +20°C° 0 mm 3 mps 748 mmHg 85%
    02:00 +20°C° 0 mm 3 mps 748 mmHg 86%
    03:00 +20°C° 0 mm 2 mps 748 mmHg 86%
    04:00 +19°C° 0 mm 2 mps 748 mmHg 87%
    05:00 +19°C° 0 mm 2 mps 748 mmHg 87%
    06:00 +19°C° 0 mm 2 mps 748 mmHg 86%
    07:00 +19°C° 0 mm 2 mps 749 mmHg 85%
    08:00 +23°C° 0 mm 2 mps 749 mmHg 75%
    09:00 +25°C° 0 mm 2 mps 749 mmHg 64%
    10:00 +28°C° 0 mm 2 mps 749 mmHg 54%
    11:00 +29°C° 0 mm 2 mps 749 mmHg 47%
    12:00 +31°C° 0 mm 1 mps 748 mmHg 40%
    13:00 +33°C° 0 mm 1 mps 748 mmHg 33%
    14:00 +33°C° 0 mm 1 mps 748 mmHg 31%
    15:00 +34°C° 0 mm 2 mps 747 mmHg 29%
    16:00 +34°C° 0 mm 2 mps 747 mmHg 27%
    17:00 +31°C° 0 mm 2 mps 747 mmHg 31%
    18:00 +30°C° 0 mm 2 mps 747 mmHg 34%
    19:00 +28°C° 0 mm 2 mps 747 mmHg 38%
    20:00 +27°C° 0 mm 3 mps 748 mmHg 46%
    21:00 +26°C° 0 mm 3 mps 748 mmHg 55%
    22:00 +25°C° 0 mm 4 mps 749 mmHg 63%
    23:00 +24°C° 0 mm 3 mps 749 mmHg 67%

    Day after tomorrow, 21 March, Thursday

    Time Temperature Precipitation Wind Pressure Humidity
    00:00 +22°C° 0 mm 3 mps 749 mmHg 71%
    01:00 +21°C° 0 mm 2 mps 749 mmHg 75%
    02:00 +21°C° 0 mm 2 mps 749 mmHg 78%
    03:00 +20°C° 0 mm 2 mps 748 mmHg 80%
    04:00 +20°C° 0 mm 2 mps 748 mmHg 82%
    05:00 +20°C° 0 mm 2 mps 749 mmHg 81%
    06:00 +20°C° 0 mm 3 mps 749 mmHg 81%
    07:00 +20°C° 0 mm 3 mps 749 mmHg 80%
    08:00 +22°C° 0 mm 3 mps 750 mmHg 71%
    09:00 +26°C° 0 mm 3 mps 750 mmHg 61%
    10:00 +28°C° 0 mm 3 mps 750 mmHg 52%
    11:00 +30°C° 0 mm 3 mps 750 mmHg 46%
    12:00 +32°C° 0 mm 2 mps 749 mmHg 40%
    13:00 +34°C° 0 mm 2 mps 749 mmHg 34%
    14:00 +34°C° 0 mm 1 mps 748 mmHg 31%
    15:00 +34°C° 0 mm 1 mps 748 mmHg 29%
    16:00 +34°C° 0 mm 1 mps 747 mmHg 26%
    17:00 +33°C° 0 mm 1 mps 748 mmHg 29%
    18:00 +31°C° 0 mm 2 mps 748 mmHg 32%
    19:00 +29°C° 0 mm 2 mps 748 mmHg 35%
    20:00 +28°C° 0 mm 2 mps 749 mmHg 40%
    21:00 +27°C° 0 mm 3 mps 749 mmHg 46%
    22:00 +25°C° 0 mm 3 mps 749 mmHg 51%
    23:00 +25°C° 0 mm 3 mps 749 mmHg 55%

    22 March, Friday

    Time Temperature Precipitation Wind Pressure Humidity
    00:00 +24°C° 0 mm 3 mps 749 mmHg 58%
    01:00 +22°C° 0 mm 3 mps 749 mmHg 61%
    02:00 +24°C° 0 mm 3 mps 749 mmHg 61%
    03:00 +23°C° 0 mm 4 mps 749 mmHg 61%
    04:00 +23°C° 0 mm 4 mps 749 mmHg 61%
    05:00 +23°C° 0 mm 4 mps 749 mmHg 63%
    06:00 +23°C° 0 mm 4 mps 749 mmHg 64%
    07:00 +22°C° 0 mm 4 mps 750 mmHg 66%
    08:00 +25°C° 0 mm 4 mps 750 mmHg 62%
    09:00 +26°C° 0 mm 5 mps 750 mmHg 58%
    10:00 +28°C° 0 mm 5 mps 750 mmHg 54%
    11:00 +29°C° 0 mm 5 mps 750 mmHg 50%
    12:00 +30°C° 0 mm 4 mps 749 mmHg 45%
    13:00 +32°C° 0 mm 4 mps 748 mmHg 41%
    14:00 +32°C° 0 mm 4 mps 748 mmHg 40%
    15:00 +30°C° 0 mm 4 mps 747 mmHg 40%
    16:00 +30°C° 0 mm 4 mps 747 mmHg 40%
    17:00 +28°C° 0.2 mm 3 mps 747 mmHg 43%
    18:00 +27°C° 0.2 mm 3 mps 747 mmHg 47%
    19:00 +26°C° 0.2 mm 2 mps 747 mmHg 51%
    20:00 +25°C° 0.6 mm 3 mps 747 mmHg 54%
    21:00 +25°C° 0.6 mm 4 mps 747 mmHg 58%
    22:00 +23°C° 0.6 mm 5 mps 747 mmHg 61%
    23:00 +23°C° 0.1 mm 5 mps 747 mmHg 63%

    23 March, Saturday

    Time Temperature Precipitation Wind Pressure Humidity
    00:00 +23°C° 0.1 mm 5 mps 747 mmHg 65%
    01:00 +23°C° 0.1 mm 5 mps 746 mmHg 67%
    02:00 +23°C° 0.6 mm 6 mps 746 mmHg 69%
    03:00 +22°C° 0.6 mm 6 mps 746 mmHg 70%
    04:00 +22°C° 0.6 mm 7 mps 746 mmHg 71%
    05:00 +22°C° 0.6 mm 7 mps 746 mmHg 73%
    06:00 +22°C° 0.6 mm 7 mps 746 mmHg 74%
    07:00 +22°C° 0.6 mm 8 mps 746 mmHg 76%
    08:00 +22°C° 0.4 mm 8 mps 745 mmHg 73%
    09:00 +23°C° 0.4 mm 8 mps 745 mmHg 70%
    10:00 +24°C° 0.4 mm 8 mps 745 mmHg 67%
    11:00 +28°C° 0 mm 8 mps 744 mmHg 54%
    12:00 +33°C° 0 mm 8 mps 743 mmHg 40%
    13:00 +37°C° 0 mm 8 mps 743 mmHg 27%
    14:00 +37°C° 0 mm 8 mps 742 mmHg 24%
    15:00 +38°C° 0 mm 8 mps 742 mmHg 21%
    16:00 +38°C° 0 mm 7 mps 741 mmHg 18%
    17:00 +34°C° 0 mm 6 mps 742 mmHg 21%
    18:00 +32°C° 0 mm 5 mps 742 mmHg 23%
    19:00 +29°C° 0 mm 4 mps 743 mmHg 26%
    20:00 +28°C° 0 mm 3 mps 743 mmHg 28%
    21:00 +28°C° 0 mm 3 mps 744 mmHg 30%
    22:00 +27°C° 0 mm 3 mps 745 mmHg 33%
    23:00 +26°C° 0 mm 3 mps 745 mmHg 40%

    24 March, Sunday

    Time Temperature Precipitation Wind Pressure Humidity
    00:00 +25°C° 0 mm 3 mps 745 mmHg 48%
    01:00 +22°C° 0 mm 3 mps 745 mmHg 55%
    02:00 +22°C° 0 mm 3 mps 745 mmHg 62%
    03:00 +21°C° 0 mm 2 mps 745 mmHg 68%
    04:00 +20°C° 0 mm 2 mps 745 mmHg 75%
    05:00 +20°C° 0 mm 2 mps 746 mmHg 75%
    06:00 +19°C° 0 mm 2 mps 746 mmHg 76%
    07:00 +19°C° 0 mm 2 mps 746 mmHg 77%
    08:00 +22°C° 0 mm 1 mps 746 mmHg 67%
    09:00 +24°C° 0 mm 1 mps 746 mmHg 58%
    10:00 +26°C° 0 mm 1 mps 747 mmHg 49%
    11:00 +28°C° 0 mm 2 mps 746 mmHg 43%
    12:00 +29°C° 0 mm 2 mps 745 mmHg 38%
    13:00 +31°C° 0 mm 3 mps 745 mmHg 32%
    14:00 +31°C° 0 mm 3 mps 744 mmHg 30%
    15:00 +33°C° 0 mm 3 mps 744 mmHg 28%
    16:00 +34°C° 0 mm 3 mps 743 mmHg 26%
    17:00 +31°C° 0 mm 3 mps 743 mmHg 28%
    18:00 +30°C° 0 mm 3 mps 743 mmHg 30%
    19:00 +29°C° 0 mm 2 mps 743 mmHg 31%
    20:00 +29°C° 0.1 mm 2 mps 743 mmHg 33%
    21:00 +28°C° 0.1 mm 3 mps 742 mmHg 34%
    22:00 +28°C° 0.1 mm 3 mps 742 mmHg 36%
    23:00 +27°C° 0.4 mm 3 mps 742 mmHg 42%
    Show more